Location: Old Broadwell Mill Observatory
(33.8015°N, 85.8137°W)
Time: 09:18:06
(UTC-06:00)

Daily predictions for brighter satellites

Satellite Brightness Start Highest point End
(mag) Time Altitude Azimuth Time Altitude Azimuth Time Altitude Azimuth
Cosmos 1538 Rocket 4.2 17:23:18 10° S 17:28:27 59° ESE 17:33:42 10° NNE
MOS 1 4.4 17:24:06 10° SSE 17:29:45 86° WSW 17:35:28 10° NNW
Sich 1 3.8 17:26:52 10° SSE 17:30:49 32° E 17:34:46 10° NNE
Thor Agena Rocket 3.9 17:27:07 10° N 17:32:18 71° WNW 17:37:24 10° SSW
SPOT 3 Rocket 3.7 17:27:48 10° SSE 17:32:57 84° WSW 17:38:08 10° NNW
MSX 3.9 17:27:48 10° SSE 17:33:31 85° ENE 17:39:17 10° NNW
Cosmos 1703 3.3 17:30:19 10° S 17:34:08 57° E 17:37:58 10° NNE
Milstar 3 4.0 17:27:52 10° W 17:34:37 40° SSW 17:40:53 10° SE
Coronas F rocket 2.8 17:34:15 10° SE 17:35:46 15° E 17:37:18 10° NE
Cosmos 2237 Rocket 3.9 17:35:08 10° SW 17:40:05 32° WNW 17:45:06 10° N
Cosmos 1633 Rocket 3.6 17:38:32 10° SSE 17:42:37 38° E 17:46:42 10° NNE
SJ-6B 4.3 17:39:52 10° ESE 17:42:43 19° ENE 17:45:36 10° NNE
Meteor 2-10 4.0 17:37:45 10° N 17:42:57 86° E 17:48:18 10° S
Cosmos 1300 3.9 17:39:20 10° NNW 17:43:02 48° W 17:46:43 10° SSW
Timation 1 Rocket 4.3 17:39:18 10° NNW 17:45:20 72° ENE 17:51:19 10° SSE
Delta 2 Rocket 4.2 17:43:13 10° SSW 17:46:04 26° SSE 17:48:47 11° E
CZ-4 R/B 3.4 17:43:09 10° SSW 17:46:37 31° W 17:50:08 10° NW
SL-16 R/B 2.6 17:43:32 10° SSW 17:49:08 66° WNW 17:54:47 10° NNE
Centaur AC-72 4.4 17:48:33 10° SW 17:53:32 28° SSE 18:01:26 10° ESE
Cosmos 1900 4.3 17:51:02 10° NNW 17:56:00 72° ENE 18:01:00 10° SSE
Intelsat 5-1 Rocket 3.9 17:56:30 10° SSW 17:57:34 12° S 17:58:48 10° SSE
Cosmos 773 Rocket 3.9 17:54:39 10° S 17:59:47 77° ESE 18:05:00 10° NNE
ALOS 3.5 17:57:15 10° ESE 18:00:31 19° ENE 18:03:46 10° NNE
USA 215 4.3 17:56:43 13° ENE 18:01:02 25° NNE 18:06:10 10° NNW
Cosmos 1484 Rocket 3.3 17:58:03 10° S 18:01:57 64° W 18:05:55 10° NNW
Cosmos 2297 3.8 18:01:16 10° NNW 18:07:01 84° WSW 18:12:44 10° SSE
Meteor 1-28 Rocket 3.3 18:03:39 10° N 18:07:22 77° WNW 18:11:05 10° SSW
METEOR-M 4.3 18:02:46 10° SSE 18:07:54 49° ENE 18:13:03 10° N
BREEZE-M DEB (TANK) 4.3 18:05:44 10° S 18:09:12 31° ESE 18:15:09 16° ENE
Cosmos 292 Rocket 3.9 18:04:58 10° S 18:09:34 53° ESE 18:14:12 10° NNE
Genesis I 4.2 18:08:07 10° S 18:11:30 28° ESE 18:12:42 24° E
NOAA 12 4.1 18:07:38 10° SSE 18:12:46 59° ENE 18:17:56 10° N
Cosmos 1707 Rocket 3.6 18:08:50 10° N 18:13:10 83° W 18:17:30 10° S
COSMO-SKYMED 1 3.8 18:11:50 10° N 18:15:57 43° WNW 18:20:02 10° SW
Cosmos 2112 Rocket 4.2 18:14:12 10° S 18:19:09 47° ESE 18:23:17 15° NNE
Cosmos 1666 Rocket 4.2 18:15:23 10° SSW 18:19:38 57° W 18:23:57 10° N
Cosmos 1869 3.2 18:22:09 10° N 18:26:09 62° E 18:30:07 10° SSE
Cosmos 1943 3.7 18:21:03 10° S 18:26:11 37° ESE 18:28:35 26° ENE
Cosmos 1626 4.0 18:23:55 10° SW 18:27:17 32° W 18:30:41 10° NNW
Lacrosse 4 Rocket 1.3 18:26:35 10° NNW 18:30:35 56° ENE 18:33:02 22° SE
Cosmos 1933 Rocket 3.5 18:26:46 10° S 18:31:08 63° E 18:35:24 11° NNE
Helios 1B rocket 4.3 18:37:11 17° SE 18:37:11 17° SE 18:38:27 10° SSE
TIMED 4.4 18:30:37 10° NNW 18:34:59 76° ENE 18:39:21 10° SSE
Resurs 01 Rocket 2.0 18:31:43 10° SE 18:35:52 40° ENE 18:40:01 10° N
SL-19 R/B 4.3 18:33:51 10° SSE 18:39:37 59° ENE 18:45:07 10° N
H-2A ROCKET BODY 3.4 18:16:13 10° W 18:42:13 65° S 18:45:25 29° ESE
USA 229 DEB 4.5 18:38:37 10° SW 18:45:12 49° NW 18:51:55 10° NNE
USA 229 4.5 18:38:42 10° SW 18:45:18 49° NW 18:52:01 10° NNE
FREGAT/IRIS 3.2 18:43:09 10° S 18:46:09 57° W 18:49:10 10° NNW
Iridium 4 Rocket 3.4 18:43:40 10° S 18:48:09 65° W 18:52:22 10° N
Cosmos 1627 Rocket 4.3 18:42:19 10° S 18:48:30 76° E 18:54:38 10° N
Cosmos 1655 Rocket 4.0 18:43:09 10° SSE 18:49:22 57° E 18:55:34 10° NNE
Spot 2 Rocket 3.4 18:45:09 10° SSE 18:50:04 58° ENE 18:55:01 10° N
ISS -0.8 18:48:56 10° S 18:49:29 13° S 18:49:29 13° S
Cosmos 1470 Rocket 3.9 18:48:29 10° SSW 18:52:47 62° W 18:57:05 10° N
Cosmos 1603 4.4 18:48:42 10° SW 18:54:09 51° WNW 18:59:29 10° N
Tiangong 1 2.8 18:52:21 10° W 18:54:18 26° NW 18:54:18 26° NW
Cosmos 1242 Rocket 2.8 18:52:46 10° NNW 18:56:14 63° W 18:59:41 10° S
NOSS 3-1 (A) 3.3 18:53:20 10° SSW 18:58:55 62° ESE 19:00:05 52° ENE
ERBS 4.4 18:57:47 10° SSW 18:59:08 21° S 18:59:08 21° S
FengYun 1-2 T 4.1 18:56:11 10° SSE 19:01:45 87° ENE 19:07:17 10° NNW
Cosmos 2026 Rocket 4.1 19:07:19 10° S 19:13:32 75° W 19:19:41 10° N
Haruka 4.4 19:09:35 10° W 19:14:41 74° S 19:20:46 36° ESE
Cosmos 2369 Rocket 3.4 19:26:12 10° NNW 19:28:56 30° N 19:28:56 30° N
NOSS 3-1 (C) 4.1 19:30:41 10° SW 19:36:12 49° NW 19:37:28 42° NNW
ALOS 3.8 19:33:25 10° SSW 19:37:38 35° W 19:41:55 10° NNW
USA 215 3.2 19:44:05 74° NNW 19:44:05 74° NNW 19:49:59 10° NW
ATLAS 2A CENTAUR R/B 4.1 19:45:55 10° SW 19:46:28 15° SW 19:46:28 15° SW
CZ-3A R/B 3.9 19:52:35 10° NW 19:57:14 53° SW 20:08:44 10° SSE
Resurs 01 Rocket 4.5 20:09:58 10° SW 20:12:27 15° W 20:14:56 10° WNW
